Location: Newark
(6.1731°S, 35.7419°E)
Time: 18:52:36
(UTC+00:00)

Vanguard 3 - All Passes

Search period start: 25 February 2020 00:00
Search period end: 06 March 2020 00:00
Orbit: 508 x 3263 km, 33.3° (Epoch: 25 February)

Date Brightness Start Highest point End Pass type
(mag) Time Alt. Az. Time Alt. Az. Time Alt. Az.
25 Feb - 01:48:53 10° WSW 01:54:58 77° NW 01:58:58 10° NE visible
25 Feb - 10:51:26 10° NNE 10:56:46 13° NE 11:03:07 10° ENE daylight
25 Feb - 12:58:19 10° NNW 13:12:09 50° NE 13:30:55 10° ESE daylight
25 Feb - 15:11:14 10° WNW 15:28:59 75° SW 15:48:35 10° SE daylight
25 Feb - 17:30:19 10° W 17:47:49 37° SSW 18:02:44 10° SE visible
25 Feb - 19:56:20 10° SW 20:07:42 20° S 20:16:19 10° SSE visible
25 Feb - 22:18:16 10° SSW 22:26:08 19° S 22:31:40 10° SE visible
26 Feb - 00:33:21 10° SW 00:41:02 47° SSE 00:45:40 10° ENE visible
26 Feb - 02:49:06 10° W 02:52:23 18° NW 02:55:06 10° N visible
26 Feb - 11:45:24 10° NNW 11:56:02 30° NE 12:10:56 10° E daylight
26 Feb - 13:55:57 10° NW 14:11:36 81° NE 14:31:55 10° ESE daylight
26 Feb - 16:11:39 10° W 16:29:40 50° SSW 16:47:30 10° SE visible
26 Feb - 18:34:41 10° WSW 18:49:35 26° SSW 19:01:27 10° SE visible
26 Feb - 20:59:52 10° SW 21:09:26 19° S 21:16:26 10° SE visible
26 Feb - 23:17:25 10° SW 23:26:11 31° SSE 23:31:39 10° E night (unlit)
27 Feb - 01:32:29 10° WSW 01:39:05 56° NW 01:43:16 10° NE visible
27 Feb - 10:34:31 10° N 10:40:24 15° NE 10:47:41 10° ENE daylight
27 Feb - 12:41:53 10° NW 12:54:59 56° NE 13:13:56 10° ESE daylight
27 Feb - 14:54:52 10° WNW 15:11:44 68° SSW 15:31:34 10° SE daylight
27 Feb - 17:14:07 10° W 17:31:07 34° SSW 17:46:17 10° SE visible
27 Feb - 19:39:33 10° SW 19:51:47 21° S 20:01:04 10° SE visible
27 Feb - 22:00:35 10° SW 22:10:26 24° SSE 22:16:58 10° ESE visible
28 Feb - 00:16:20 10° SW 00:25:14 65° SSE 00:30:18 10° ENE night (unlit)
28 Feb - 02:33:45 10° WNW 02:36:22 14° NW 02:38:36 10° NNW visible
28 Feb - 11:28:57 10° NNW 11:39:12 34° NE 11:54:16 10° E daylight
28 Feb - 13:39:37 10° NW 13:54:21 89° NE 14:14:45 10° SE daylight
28 Feb - 15:55:28 10° W 16:12:40 46° SSW 16:30:39 10° SE visible
28 Feb - 18:18:23 10° WSW 18:33:19 25° SSW 18:45:34 10° SE visible
28 Feb - 20:42:23 10° SW 20:53:39 22° S 21:01:38 10° SE visible
28 Feb - 22:59:57 10° SW 23:10:26 40° SSE 23:16:34 10° E night (unlit)
29 Feb - 01:16:03 10° WSW 01:23:05 43° NW 01:27:29 10° NNE visible
29 Feb - 10:17:49 10° N 10:23:58 17° NE 10:31:57 10° ENE daylight
29 Feb - 12:25:34 10° NW 12:37:52 62° NE 12:56:48 10° ESE daylight
29 Feb - 14:38:41 10° WNW 14:54:35 61° SSW 15:14:25 10° SE daylight
29 Feb - 16:58:02 10° WSW 17:14:30 32° SSW 17:29:50 10° SE visible
29 Feb - 19:22:39 10° SW 19:35:49 23° S 19:45:51 10° SE visible
29 Feb - 21:42:54 10° SW 21:54:39 30° SSE 22:02:03 10° ESE visible
29 Feb - 23:59:19 10° SW 00:09:18 84° SSE 00:14:49 10° ENE night (unlit)
01 Mar - 02:18:53 10° WNW 02:20:19 11° NW 02:21:38 10° NNW visible
01 Mar - 11:12:38 10° NNW 11:22:22 37° NE 11:37:26 10° ESE daylight
01 Mar - 13:23:26 10° WNW 13:37:13 83° SW 13:57:26 10° SE daylight
01 Mar - 15:39:27 10° W 15:55:48 42° SSW 16:13:45 10° SE visible
01 Mar - 18:02:05 10° WSW 18:17:06 25° S 18:29:44 10° SE visible
01 Mar - 20:24:51 10° SW 20:37:47 26° S 20:46:43 10° ESE visible
01 Mar - 22:42:29 10° SW 22:54:33 50° SSE 23:01:18 10° ENE visible
02 Mar - 00:59:38 10° WSW 01:06:59 35° NW 01:11:37 10° NNE night (unlit)
02 Mar - 10:01:16 10° N 10:07:30 18° NE 10:15:57 10° E daylight
02 Mar - 12:09:24 10° NW 12:20:53 70° NE 12:39:31 10° ESE daylight
02 Mar - 14:22:41 10° WNW 14:37:37 55° SSW 14:57:11 10° SE daylight
02 Mar - 16:42:05 10° WSW 16:57:59 30° SSW 17:13:24 10° SE visible
02 Mar - 19:05:39 10° SW 19:19:49 25° S 19:30:38 10° SE visible
02 Mar - 21:25:14 10° SW 21:38:43 37° SSE 21:46:57 10° E visible
02 Mar - 23:42:15 10° WSW 23:53:15 79° NW 23:59:12 10° NE night (unlit)
03 Mar - 10:56:26 10° NNW 11:05:35 42° NE 11:20:28 10° ESE daylight
03 Mar - 13:07:25 10° WNW 13:20:16 74° SSW 13:40:01 10° SE daylight
03 Mar - 15:23:37 10° W 15:39:04 38° SSW 15:56:47 10° SE daylight
03 Mar - 17:45:46 10° SW 18:00:54 26° S 18:13:59 10° SE visible
03 Mar - 20:07:17 10° SW 20:21:48 30° SSE 20:31:40 10° ESE visible
03 Mar - 22:25:00 10° SW 22:38:31 63° SSE 22:45:54 10° ENE visible
04 Mar - 00:43:15 10° WSW 00:50:48 29° NW 00:55:39 10° NNE night (unlit)
04 Mar - 09:44:51 10° N 09:51:02 21° NE 09:59:47 10° E daylight
04 Mar - 11:53:22 10° NW 12:04:00 78° NE 12:22:08 10° ESE daylight
04 Mar - 14:06:51 10° W 14:20:48 49° SSW 14:39:50 10° SE daylight
04 Mar - 16:26:14 10° WSW 16:41:35 29° SSW 16:56:59 10° SE visible
04 Mar - 18:48:36 10° SW 19:03:44 27° S 19:15:23 10° ESE visible
04 Mar - 21:07:32 10° SW 21:22:40 44° SSE 21:31:41 10° E visible
04 Mar - 23:25:11 10° WSW 23:37:02 65° NW 23:43:30 10° NE night (unlit)
05 Mar - 10:40:20 10° NNW 10:48:52 47° NE 11:03:25 10° ESE daylight
05 Mar - 12:51:34 10° WNW 13:03:29 66° SSW 13:22:28 10° SE daylight
05 Mar - 15:07:56 10° WSW 15:22:30 34° SSW 15:39:47 10° SE daylight
05 Mar - 17:29:25 10° SW 17:44:42 26° S 17:58:16 10° SE visible
05 Mar - 19:49:43 10° SW 20:05:40 35° SSE 20:16:28 10° ESE visible
05 Mar - 22:07:29 10° SW 22:22:19 75° SSE 22:30:21 10° ENE visible
